UOSAT 2 (UO-11)

Last updated on Tue Aug 25 2026 00:03:13 GMT+0000 (Coordinated Universal Time)

1 14781U 84021B 26236.61314321 .00001153 00000+0 12242-3 0 9999 2 14781 97.8129 201.4554 0006684 328.9523 31.1300 14.90942051267329
UTC large
Height (km)
Speed (km/s)
/
Latitude / Longitude
Inclination (degrees)
Orbital Period (minutes)
Azimuth
Elevation
Range (km)
Doppler Factor

Next 0 passes for location: London (51.5072 / 0.1276)

No passes found over London.
UOSAT 2 (UO-11)